Regional Weather Roundup
Issued by NWS

Home | Current Version | Previous Version | Graphics & Text | Print | Product List | Glossary On
Versions: 1 2 3 4 5 6 7 8 9 10 11 12 13 14 15 16 17 18 19 20 21 22 23 24 25 26 27 28 29 30 31 32 33 34 35 36 37 38 39 40 41 42 43 44 45 46 47 48 49 50
376
ASUS43 KBIS 091902
RWRND

NORTH DAKOTA REGIONAL WEATHER ROUNDUP
NATIONAL WEATHER SERVICE BISMARCK ND
100 PM CST TUE FEB 09 2016

NOTE: "FAIR" INDICATES FEW OR NO CLOUDS BELOW 12,000 FEET WITH NO
SIGNIFICANT WEATHER AND/OR OBSTRUCTIONS TO VISIBILITY.


NDZ001>003-009>011-017-092000-
NORTHWEST NORTH DAKOTA

CITY           SKY/WX    TMP DP  RH WIND       PRES   REMARKS
WILLISTON      CLOUDY    34  23  64 CALM      30.20F
MINOT          MOSUNNY   37  16  42 NW6       30.17F
MINOT AFB      MOSUNNY   35  19  52 CALM      30.17F
$$

NDZ018>021-031>035-040>046-092000-
SOUTHWEST NORTH DAKOTA

CITY           SKY/WX    TMP DP  RH WIND       PRES   REMARKS
BISMARCK       CLOUDY    37  12  35 W8        30.20F
DICKINSON      CLOUDY    38  22  52 NW13      30.13F
GARRISON         N/A     33  17  51 NW6       30.18F
HETTINGER ARPT CLOUDY    41  23  48 NW17      30.16F
$$

NDZ004>008-012>016-024-026-027-054-092000-
NORTHEAST NORTH DAKOTA

CITY           SKY/WX    TMP DP  RH WIND       PRES   REMARKS
GRAND FORKS    CLOUDY    12   3  67 N15       30.30F WCI  -4
GRND FRKS AFB  CLOUDY    11   2  67 NE13      30.29S WCI  -4
DEVILS LAKE    CLOUDY    17   9  70 NE7       30.25S WCI   8
$$

NDZ022-023-025-028>030-036>039-047>053-092000-
SOUTHEAST NORTH DAKOTA

CITY           SKY/WX    TMP DP  RH WIND       PRES   REMARKS
FARGO          CLOUDY    14   6  70 N15       30.27F WCI  -1
JAMESTOWN      CLOUDY    23   8  52 NE7       30.23S WCI  15
$$





USA.gov is the U.S. government's official web portal to all federal, state and local government web resources and services.